Time,TemperatureF,DewpointF,PressureIn,WindDirection,WindDirectionDegrees,WindSpeedMPH,WindSpeedGustMPH,Humidity,HourlyPrecipIn,Conditions,Clouds,dailyrainin,SoftwareType,DateUTC
2013-03-07 00:00:00,39.0,30.7,29.90,West,270,13.0,22.0,72,-0.01,,,0.00,Weather View 32 v70,2013-03-07 05:00:00,
2013-03-07 00:05:00,39.0,30.4,29.90,WSW,248,13.0,24.0,71,-0.01,,,0.00,Weather View 32 v70,2013-03-07 05:05:00,
2013-03-07 00:10:00,39.0,30.4,29.90,West,270,5.0,24.0,71,-0.01,,,0.00,Weather View 32 v70,2013-03-07 05:10:00,
2013-03-07 00:20:00,39.0,30.0,29.90,West,270,10.0,24.0,70,-0.01,,,0.00,Weather View 32 v70,2013-03-07 05:20:00,
2013-03-07 00:25:00,39.0,30.0,29.90,SW,225,5.0,24.0,70,-0.01,,,0.00,Weather View 32 v70,2013-03-07 05:25:00,
2013-03-07 00:30:00,39.0,30.0,29.90,SW,225,7.0,24.0,70,-0.01,,,0.00,Weather View 32 v70,2013-03-07 05:30:00,
2013-03-07 00:35:00,39.0,30.0,29.89,West,270,7.0,24.0,70,-0.01,,,0.00,Weather View 32 v70,2013-03-07 05:35:00,
2013-03-07 00:40:00,39.0,30.0,29.90,WNW,292,15.0,24.0,70,-0.01,,,0.00,Weather View 32 v70,2013-03-07 05:40:00,
2013-03-07 00:50:00,39.0,30.0,29.90,West,270,10.0,24.0,70,-0.01,,,0.00,Weather View 32 v70,2013-03-07 05:50:00,
2013-03-07 01:00:00,39.0,30.0,29.90,SW,225,7.0,24.0,70,0.00,,,0.00,Weather View 32 v70,2013-03-07 06:00:00,
2013-03-07 01:05:00,39.0,30.0,29.90,WNW,292,8.0,21.0,70,0.00,,,0.00,Weather View 32 v70,2013-03-07 06:05:00,
2013-03-07 01:10:00,39.0,30.0,29.90,West,270,8.0,21.0,70,0.00,,,0.00,Weather View 32 v70,2013-03-07 06:10:00,
2013-03-07 01:15:00,39.0,30.0,29.90,WSW,248,9.0,21.0,70,0.00,,,0.00,Weather View 32 v70,2013-03-07 06:15:00,
2013-03-07 01:25:00,38.0,29.1,29.90,WSW,248,8.0,19.0,70,0.00,,,0.00,Weather View 32 v70,2013-03-07 06:25:00,
2013-03-07 01:30:00,38.0,29.1,29.90,West,270,11.0,19.0,70,0.00,,,0.00,Weather View 32 v70,2013-03-07 06:30:00,
2013-03-07 01:35:00,38.0,29.1,29.90,West,270,14.0,19.0,70,0.00,,,0.00,Weather View 32 v70,2013-03-07 06:35:00,
2013-03-07 01:45:00,38.0,29.1,29.90,West,270,10.0,20.0,70,0.00,,,0.00,Weather View 32 v70,2013-03-07 06:45:00,
2013-03-07 01:50:00,38.0,29.1,29.90,WSW,248,11.0,20.0,70,0.00,,,0.00,Weather View 32 v70,2013-03-07 06:50:00,
2013-03-07 01:55:00,38.0,29.1,29.90,West,270,8.0,20.0,70,0.00,,,0.00,Weather View 32 v70,2013-03-07 06:55:00,
2013-03-07 02:00:00,38.0,29.1,29.90,South,180,8.0,20.0,70,0.00,,,0.00,Weather View 32 v70,2013-03-07 07:00:00,
2013-03-07 02:10:00,38.0,29.4,29.90,West,270,10.0,20.0,71,0.00,,,0.00,Weather View 32 v70,2013-03-07 07:10:00,
2013-03-07 02:15:00,38.0,29.4,29.90,WSW,248,8.0,20.0,71,0.00,,,0.00,Weather View 32 v70,2013-03-07 07:15:00,
2013-03-07 02:20:00,38.0,29.4,29.91,WNW,292,10.0,20.0,71,0.00,,,0.00,Weather View 32 v70,2013-03-07 07:20:00,
2013-03-07 02:25:00,38.0,29.4,29.91,WSW,248,11.0,20.0,71,0.00,,,0.00,Weather View 32 v70,2013-03-07 07:25:00,
2013-03-07 02:30:00,38.0,29.4,29.91,WSW,248,10.0,20.0,71,0.00,,,0.00,Weather View 32 v70,2013-03-07 07:30:00,
2013-03-07 02:35:00,38.0,29.4,29.91,WNW,292,8.0,20.0,71,0.00,,,0.00,Weather View 32 v70,2013-03-07 07:35:00,
2013-03-07 02:45:00,38.0,29.4,29.91,West,270,6.0,20.0,71,0.00,,,0.00,Weather View 32 v70,2013-03-07 07:45:00,
2013-03-07 02:50:00,38.0,29.4,29.91,SSW,202,10.0,20.0,71,0.00,,,0.00,Weather View 32 v70,2013-03-07 07:50:00,
2013-03-07 03:00:00,38.0,29.4,29.91,West,270,10.0,20.0,71,0.00,,,0.00,Weather View 32 v70,2013-03-07 08:00:00,
2013-03-07 03:10:00,38.0,29.4,29.91,West,270,14.0,20.0,71,0.00,,,0.00,Weather View 32 v70,2013-03-07 08:10:00,
2013-03-07 03:20:00,38.0,29.4,29.91,SW,225,6.0,19.0,71,0.00,,,0.00,Weather View 32 v70,2013-03-07 08:20:00,
2013-03-07 03:25:00,38.0,29.4,29.91,WSW,248,10.0,21.0,71,0.00,,,0.00,Weather View 32 v70,2013-03-07 08:25:00,
2013-03-07 03:30:00,38.0,29.4,29.91,WNW,292,12.0,21.0,71,0.00,,,0.00,Weather View 32 v70,2013-03-07 08:30:00,
2013-03-07 03:36:00,38.0,29.4,29.91,West,270,10.0,21.0,71,0.00,,,0.00,Weather View 32 v70,2013-03-07 08:36:00,
2013-03-07 03:45:00,38.0,29.8,29.91,WNW,292,12.0,21.0,72,0.00,,,0.00,Weather View 32 v70,2013-03-07 08:45:00,
2013-03-07 03:50:00,38.0,29.8,29.92,West,270,7.0,21.0,72,0.00,,,0.00,Weather View 32 v70,2013-03-07 08:50:00,
2013-03-07 03:55:00,37.0,28.8,29.92,West,270,6.0,21.0,72,0.00,,,0.00,Weather View 32 v70,2013-03-07 08:55:00,
2013-03-07 04:05:00,37.0,28.8,29.92,NW,315,9.0,21.0,72,0.00,,,0.00,Weather View 32 v70,2013-03-07 09:05:00,
2013-03-07 04:10:00,37.0,28.8,29.92,WNW,292,10.0,21.0,72,0.00,,,0.00,Weather View 32 v70,2013-03-07 09:10:00,
2013-03-07 04:20:00,38.0,29.8,29.93,West,270,8.0,21.0,72,0.00,,,0.00,Weather View 32 v70,2013-03-07 09:20:00,
2013-03-07 04:25:00,38.0,29.8,29.93,WNW,292,7.0,20.0,72,0.00,,,0.00,Weather View 32 v70,2013-03-07 09:25:00,
2013-03-07 04:35:00,38.0,29.8,29.93,West,270,6.0,20.0,72,0.00,,,0.00,Weather View 32 v70,2013-03-07 09:35:00,
2013-03-07 04:45:00,38.0,29.4,29.93,West,270,8.0,20.0,71,0.00,,,0.00,Weather View 32 v70,2013-03-07 09:45:00,
2013-03-07 04:50:00,38.0,29.4,29.93,WSW,248,10.0,22.0,71,0.00,,,0.00,Weather View 32 v70,2013-03-07 09:50:00,
2013-03-07 04:55:00,38.0,29.4,29.94,WNW,292,11.0,22.0,71,0.00,,,0.00,Weather View 32 v70,2013-03-07 09:55:00,
2013-03-07 05:05:00,38.0,29.4,29.94,West,270,7.0,22.0,71,0.00,,,0.00,Weather View 32 v70,2013-03-07 10:05:00,
2013-03-07 05:10:00,38.0,29.4,29.94,NW,315,6.0,22.0,71,0.00,,,0.00,Weather View 32 v70,2013-03-07 10:10:00,
2013-03-07 05:20:00,38.0,29.1,29.94,West,270,9.0,22.0,70,0.00,,,0.00,Weather View 32 v70,2013-03-07 10:20:00,
2013-03-07 05:25:00,37.0,28.1,29.94,WNW,292,5.0,22.0,70,0.00,,,0.00,Weather View 32 v70,2013-03-07 10:25:00,
2013-03-07 05:30:00,38.0,29.1,29.94,WSW,248,11.0,23.0,70,0.00,,,0.00,Weather View 32 v70,2013-03-07 10:30:00,
2013-03-07 05:37:00,37.0,28.1,29.94,WSW,248,10.0,23.0,70,0.00,,,0.00,Weather View 32 v70,2013-03-07 10:37:00,
2013-03-07 05:45:00,37.0,28.1,29.94,West,270,10.0,23.0,70,0.00,,,0.00,Weather View 32 v70,2013-03-07 10:45:00,
2013-03-07 05:50:00,37.0,28.1,29.94,WNW,292,11.0,23.0,70,0.00,,,0.00,Weather View 32 v70,2013-03-07 10:50:00,
2013-03-07 05:55:00,37.0,28.1,29.95,NW,315,9.0,23.0,70,0.00,,,0.00,Weather View 32 v70,2013-03-07 10:55:00,
2013-03-07 06:00:00,37.0,28.1,29.95,West,270,8.0,23.0,70,0.00,,,0.00,Weather View 32 v70,2013-03-07 11:00:00,
2013-03-07 06:10:00,37.0,28.1,29.95,WNW,292,6.0,23.0,70,0.00,,,0.00,Weather View 32 v70,2013-03-07 11:10:00,
2013-03-07 06:20:00,37.0,27.8,29.95,West,270,10.0,23.0,69,0.00,,,0.00,Weather View 32 v70,2013-03-07 11:20:00,
2013-03-07 06:25:00,37.0,28.1,29.95,West,270,5.0,23.0,70,0.00,,,0.00,Weather View 32 v70,2013-03-07 11:25:00,
2013-03-07 06:30:00,37.0,28.1,29.95,NNW,338,6.0,19.0,70,0.00,,,0.00,Weather View 32 v70,2013-03-07 11:30:00,
2013-03-07 06:38:00,37.0,28.1,29.95,WNW,292,16.0,19.0,70,0.00,,,0.00,Weather View 32 v70,2013-03-07 11:38:00,
2013-03-07 06:45:00,37.0,27.8,29.95,NW,315,12.0,24.0,69,0.00,,,0.00,Weather View 32 v70,2013-03-07 11:45:00,
2013-03-07 06:50:00,37.0,27.8,29.95,West,270,8.0,24.0,69,0.00,,,0.00,Weather View 32 v70,2013-03-07 11:50:00,
2013-03-07 07:00:00,37.0,27.8,29.96,WNW,292,6.0,24.0,69,0.00,,,0.00,Weather View 32 v70,2013-03-07 12:00:00,
2013-03-07 07:10:00,37.0,27.8,29.97,NW,315,10.0,29.0,69,0.00,,,0.00,Weather View 32 v70,2013-03-07 12:10:00,
2013-03-07 07:20:00,37.0,27.4,29.98,WSW,248,8.0,29.0,68,0.00,,,0.00,Weather View 32 v70,2013-03-07 12:20:00,
2013-03-07 07:30:00,37.0,27.4,29.98,WNW,292,14.0,29.0,68,0.00,,,0.00,Weather View 32 v70,2013-03-07 12:30:00,
2013-03-07 07:35:00,38.0,28.4,29.98,West,270,5.0,29.0,68,0.00,,,0.00,Weather View 32 v70,2013-03-07 12:35:00,
2013-03-07 07:40:00,38.0,28.0,29.98,WNW,292,11.0,29.0,67,0.00,,,0.00,Weather View 32 v70,2013-03-07 12:40:00,
2013-03-07 07:45:00,38.0,28.0,29.98,WNW,292,10.0,29.0,67,0.00,,,0.00,Weather View 32 v70,2013-03-07 12:45:00,
2013-03-07 07:55:00,39.0,28.6,29.98,West,270,8.0,29.0,66,0.00,,,0.00,Weather View 32 v70,2013-03-07 12:55:00,
2013-03-07 08:05:00,39.0,28.2,29.98,West,270,10.0,29.0,65,0.00,,,0.00,Weather View 32 v70,2013-03-07 13:05:00,
2013-03-07 08:10:00,39.0,27.8,29.98,West,270,14.0,24.0,64,0.00,,,0.00,Weather View 32 v70,2013-03-07 13:10:00,
2013-03-07 08:20:00,39.0,27.8,29.99,West,270,10.0,24.0,64,0.00,,,0.00,Weather View 32 v70,2013-03-07 13:20:00,
2013-03-07 08:25:00,39.0,28.2,29.99,WNW,292,10.0,24.0,65,0.00,,,0.00,Weather View 32 v70,2013-03-07 13:25:00,
2013-03-07 08:30:00,39.0,27.8,29.99,WSW,248,9.0,24.0,64,0.00,,,0.00,Weather View 32 v70,2013-03-07 13:30:00,
2013-03-07 08:39:00,39.0,27.8,29.99,West,270,5.0,24.0,64,0.00,,,0.00,Weather View 32 v70,2013-03-07 13:39:00,
2013-03-07 08:45:00,39.0,27.5,29.99,WNW,292,14.0,23.0,63,0.00,,,0.00,Weather View 32 v70,2013-03-07 13:45:00,
2013-03-07 08:50:00,39.0,27.5,29.99,WNW,292,8.0,23.0,63,0.00,,,0.00,Weather View 32 v70,2013-03-07 13:50:00,
2013-03-07 08:55:00,40.0,28.4,29.99,West,270,11.0,23.0,63,0.00,,,0.00,Weather View 32 v70,2013-03-07 13:55:00,
2013-03-07 09:00:00,40.0,28.4,29.99,NW,315,5.0,23.0,63,0.00,,,0.00,Weather View 32 v70,2013-03-07 14:00:00,
2013-03-07 09:10:00,40.0,27.6,29.99,West,270,12.0,21.0,61,0.00,,,0.00,Weather View 32 v70,2013-03-07 14:10:00,
2013-03-07 09:20:00,40.0,28.0,29.99,WSW,248,6.0,20.0,62,0.00,,,0.00,Weather View 32 v70,2013-03-07 14:20:00,
2013-03-07 09:25:00,41.0,29.0,29.99,West,270,12.0,20.0,62,0.00,,,0.00,Weather View 32 v70,2013-03-07 14:25:00,
2013-03-07 09:30:00,40.0,27.6,29.99,WNW,292,6.0,20.0,61,0.00,,,0.00,Weather View 32 v70,2013-03-07 14:30:00,
2013-03-07 09:39:00,41.0,29.0,29.99,West,270,10.0,20.0,62,0.00,,,0.00,Weather View 32 v70,2013-03-07 14:39:00,
2013-03-07 09:45:00,41.0,29.0,29.99,WNW,292,9.0,21.0,62,0.00,,,0.00,Weather View 32 v70,2013-03-07 14:45:00,
2013-03-07 09:55:00,41.0,29.0,29.99,West,270,12.0,21.0,62,0.00,,,0.00,Weather View 32 v70,2013-03-07 14:55:00,
2013-03-07 10:00:00,41.0,29.0,30.00,West,270,9.0,21.0,62,0.00,,,0.00,Weather View 32 v70,2013-03-07 15:00:00,
2013-03-07 10:05:00,41.0,28.6,29.99,West,270,7.0,21.0,61,0.00,,,0.00,Weather View 32 v70,2013-03-07 15:05:00,
2013-03-07 10:10:00,40.0,27.6,29.99,SW,225,16.0,22.0,61,0.00,,,0.00,Weather View 32 v70,2013-03-07 15:10:00,
2013-03-07 10:20:00,41.0,28.6,30.00,West,270,14.0,22.0,61,0.00,,,0.00,Weather View 32 v70,2013-03-07 15:20:00,
2013-03-07 10:30:00,41.0,28.6,30.00,WSW,248,8.0,22.0,61,0.00,,,0.00,Weather View 32 v70,2013-03-07 15:30:00,
2013-03-07 10:35:00,41.0,28.6,30.00,SW,225,14.0,22.0,61,0.00,,,0.00,Weather View 32 v70,2013-03-07 15:35:00,
2013-03-07 10:40:00,41.0,28.6,30.00,WSW,248,6.0,22.0,61,0.00,,,0.00,Weather View 32 v70,2013-03-07 15:40:00,
2013-03-07 10:45:00,41.0,28.6,30.00,SW,225,18.0,22.0,61,0.00,,,0.00,Weather View 32 v70,2013-03-07 15:45:00,
2013-03-07 10:50:00,41.0,28.6,30.00,West,270,13.0,23.0,61,0.00,,,0.00,Weather View 32 v70,2013-03-07 15:50:00,
2013-03-07 10:55:00,42.0,29.9,30.00,WSW,248,8.0,23.0,62,0.00,,,0.00,Weather View 32 v70,2013-03-07 15:55:00,
2013-03-07 11:00:00,42.0,29.5,30.00,North,0,8.0,23.0,61,0.00,,,0.00,Weather View 32 v70,2013-03-07 16:00:00,
2013-03-07 11:10:00,42.0,29.9,30.00,WSW,248,6.0,23.0,62,0.00,,,0.00,Weather View 32 v70,2013-03-07 16:10:00,
2013-03-07 11:20:00,42.0,29.9,30.00,West,270,10.0,23.0,62,0.00,,,0.00,Weather View 32 v70,2013-03-07 16:20:00,
2013-03-07 11:25:00,42.0,29.9,30.00,SSW,202,5.0,23.0,62,0.00,,,0.00,Weather View 32 v70,2013-03-07 16:25:00,
2013-03-07 11:30:00,42.0,29.5,30.00,South,180,16.0,23.0,61,0.00,,,0.00,Weather View 32 v70,2013-03-07 16:30:00,
2013-03-07 11:35:00,42.0,29.5,29.99,WNW,292,13.0,23.0,61,0.00,,,0.00,Weather View 32 v70,2013-03-07 16:35:00,
2013-03-07 11:40:00,43.0,30.9,29.99,WSW,248,15.0,23.0,62,0.00,,,0.00,Weather View 32 v70,2013-03-07 16:40:00,
2013-03-07 11:50:00,42.0,29.9,29.99,SW,225,11.0,21.0,62,0.00,,,0.00,Weather View 32 v70,2013-03-07 16:50:00,
2013-03-07 12:00:00,42.0,30.3,29.99,SW,225,7.0,21.0,63,0.00,,,0.00,Weather View 32 v70,2013-03-07 17:00:00,
2013-03-07 12:10:00,43.0,30.9,29.99,WSW,248,8.0,21.0,62,0.00,,,0.00,Weather View 32 v70,2013-03-07 17:10:00,
2013-03-07 12:20:00,43.0,31.2,29.99,West,270,8.0,20.0,63,0.00,,,0.00,Weather View 32 v70,2013-03-07 17:20:00,
2013-03-07 12:30:00,43.0,31.2,29.99,West,270,10.0,20.0,63,0.00,,,0.00,Weather View 32 v70,2013-03-07 17:30:00,
2013-03-07 12:40:00,43.0,30.5,29.98,West,270,21.0,21.0,61,0.00,,,0.00,Weather View 32 v70,2013-03-07 17:40:00,
2013-03-07 12:45:00,43.0,30.5,29.99,WSW,248,5.0,21.0,61,0.00,,,0.00,Weather View 32 v70,2013-03-07 17:45:00,
2013-03-07 12:50:00,43.0,30.0,29.98,WSW,248,12.0,21.0,60,0.00,,,0.00,Weather View 32 v70,2013-03-07 17:50:00,
2013-03-07 12:55:00,43.0,29.6,29.98,WNW,292,11.0,21.0,59,0.00,,,0.00,Weather View 32 v70,2013-03-07 17:55:00,
2013-03-07 13:00:00,44.0,31.0,29.98,WSW,248,7.0,21.0,60,0.00,,,0.00,Weather View 32 v70,2013-03-07 18:00:00,
2013-03-07 13:10:00,45.0,31.9,29.98,WNW,292,8.0,21.0,60,0.00,,,0.00,Weather View 32 v70,2013-03-07 18:10:00,
2013-03-07 13:20:00,44.0,30.6,29.98,NNW,338,7.0,21.0,59,0.00,,,0.00,Weather View 32 v70,2013-03-07 18:20:00,
2013-03-07 13:30:00,44.0,31.4,29.98,West,270,6.0,21.0,61,0.00,,,0.00,Weather View 32 v70,2013-03-07 18:30:00,
2013-03-07 13:35:00,44.0,31.4,29.98,WSW,248,6.0,21.0,61,0.00,,,0.00,Weather View 32 v70,2013-03-07 18:35:00,
2013-03-07 13:40:00,44.0,31.8,29.98,NNW,338,10.0,21.0,62,0.00,,,0.00,Weather View 32 v70,2013-03-07 18:40:00,
2013-03-07 13:45:00,43.0,30.9,29.98,SW,225,8.0,19.0,62,0.00,,,0.00,Weather View 32 v70,2013-03-07 18:45:00,
2013-03-07 13:50:00,43.0,30.9,29.98,SW,225,5.0,19.0,62,0.00,,,0.00,Weather View 32 v70,2013-03-07 18:50:00,
2013-03-07 13:55:00,44.0,31.8,29.98,WSW,248,10.0,19.0,62,0.00,,,0.00,Weather View 32 v70,2013-03-07 18:55:00,
2013-03-07 14:05:00,43.0,31.2,29.98,SW,225,10.0,19.0,63,0.00,,,0.00,Weather View 32 v70,2013-03-07 19:05:00,
2013-03-07 14:15:00,43.0,31.6,29.98,SW,225,6.0,19.0,64,0.00,,,0.00,Weather View 32 v70,2013-03-07 19:15:00,
2013-03-07 14:20:00,43.0,31.6,29.98,SSW,202,5.0,19.0,64,0.00,,,0.00,Weather View 32 v70,2013-03-07 19:20:00,
2013-03-07 14:30:00,44.0,32.6,29.98,WSW,248,10.0,19.0,64,0.00,,,0.00,Weather View 32 v70,2013-03-07 19:30:00,
2013-03-07 14:35:00,43.0,32.0,29.98,WSW,248,13.0,19.0,65,0.00,,,0.00,Weather View 32 v70,2013-03-07 19:35:00,
2013-03-07 14:40:00,43.0,32.0,29.98,West,270,11.0,19.0,65,0.00,,,0.00,Weather View 32 v70,2013-03-07 19:40:00,
2013-03-07 14:45:00,43.0,32.4,29.99,WSW,248,5.0,18.0,66,0.00,,,0.00,Weather View 32 v70,2013-03-07 19:45:00,
2013-03-07 14:50:00,43.0,32.0,29.99,SSW,202,6.0,18.0,65,0.00,,,0.00,Weather View 32 v70,2013-03-07 19:50:00,
2013-03-07 14:55:00,43.0,32.4,29.99,West,270,6.0,18.0,66,0.00,,,0.00,Weather View 32 v70,2013-03-07 19:55:00,
2013-03-07 15:00:00,43.0,32.8,29.99,SW,225,5.0,18.0,67,0.00,,,0.00,Weather View 32 v70,2013-03-07 20:00:00,
2013-03-07 15:10:00,43.0,32.4,29.99,SW,225,11.0,18.0,66,0.00,,,0.00,Weather View 32 v70,2013-03-07 20:10:00,
2013-03-07 15:15:00,43.0,32.4,30.00,West,270,7.0,18.0,66,0.00,,,0.00,Weather View 32 v70,2013-03-07 20:15:00,
2013-03-07 15:25:00,43.0,33.1,30.00,SW,225,7.0,18.0,68,0.00,,,0.00,Weather View 32 v70,2013-03-07 20:25:00,
2013-03-07 15:35:00,42.0,33.6,30.00,SSW,202,10.0,19.0,72,0.00,,,0.00,Weather View 32 v70,2013-03-07 20:35:00,
2013-03-07 15:40:00,42.0,34.0,30.00,West,270,11.0,19.0,73,0.00,,,0.00,Weather View 32 v70,2013-03-07 20:40:00,
2013-03-07 15:45:00,42.0,34.6,30.00,WSW,248,10.0,19.0,75,0.00,,,0.00,Weather View 32 v70,2013-03-07 20:45:00,
2013-03-07 15:50:00,42.0,34.6,30.01,West,270,11.0,19.0,75,0.00,,,0.00,Weather View 32 v70,2013-03-07 20:50:00,
2013-03-07 15:55:00,42.0,35.0,30.01,SW,225,10.0,19.0,76,0.00,,,0.00,Weather View 32 v70,2013-03-07 20:55:00,
2013-03-07 16:00:00,41.0,34.3,30.01,WNW,292,15.0,19.0,77,0.00,,,0.00,Weather View 32 v70,2013-03-07 21:00:00,
2013-03-07 16:10:00,41.0,35.6,30.01,SW,225,10.0,19.0,81,0.00,,,0.00,Weather View 32 v70,2013-03-07 21:10:00,
2013-03-07 16:20:00,41.0,36.2,30.02,WSW,248,8.0,19.0,83,0.00,,,0.00,Weather View 32 v70,2013-03-07 21:20:00,
2013-03-07 16:25:00,41.0,36.2,30.02,WSW,248,11.0,19.0,83,0.00,,,0.00,Weather View 32 v70,2013-03-07 21:25:00,
2013-03-07 16:30:00,41.0,36.2,30.02,NNW,338,4.0,19.0,83,0.00,,,0.00,Weather View 32 v70,2013-03-07 21:30:00,
2013-03-07 16:35:00,41.0,36.5,30.02,West,270,3.0,19.0,84,0.00,,,0.00,Weather View 32 v70,2013-03-07 21:35:00,
2013-03-07 16:40:00,40.0,35.9,30.02,West,270,5.0,19.0,85,0.00,,,0.00,Weather View 32 v70,2013-03-07 21:40:00,
2013-03-07 16:50:00,40.0,36.4,30.02,NW,315,10.0,19.0,87,0.00,,,0.00,Weather View 32 v70,2013-03-07 21:50:00,
2013-03-07 17:00:00,40.0,37.0,30.03,West,270,8.0,19.0,89,0.00,,,0.00,Weather View 32 v70,2013-03-07 22:00:00,
2013-03-07 17:10:00,40.0,37.3,30.03,WSW,248,10.0,19.0,90,0.00,,,0.00,Weather View 32 v70,2013-03-07 22:10:00,
2013-03-07 17:15:00,40.0,37.3,30.03,West,270,5.0,18.0,90,0.00,,,0.00,Weather View 32 v70,2013-03-07 22:15:00,
2013-03-07 17:20:00,40.0,37.6,30.03,SW,225,9.0,18.0,91,0.00,,,0.00,Weather View 32 v70,2013-03-07 22:20:00,
2013-03-07 17:25:00,40.0,37.6,30.03,West,270,5.0,18.0,91,0.00,,,0.00,Weather View 32 v70,2013-03-07 22:25:00,
2013-03-07 17:30:00,40.0,37.9,30.03,SSW,202,6.0,18.0,92,0.00,,,0.00,Weather View 32 v70,2013-03-07 22:30:00,
2013-03-07 17:40:00,40.0,36.7,30.03,WSW,248,11.0,19.0,88,0.00,,,0.00,Weather View 32 v70,2013-03-07 22:40:00,
2013-03-07 17:45:00,40.0,36.4,30.04,WSW,248,6.0,19.0,87,0.00,,,0.00,Weather View 32 v70,2013-03-07 22:45:00,
2013-03-07 17:50:00,39.0,35.5,30.04,West,270,10.0,19.0,87,0.00,,,0.00,Weather View 32 v70,2013-03-07 22:50:00,
2013-03-07 17:55:00,39.0,35.5,30.04,WSW,248,4.0,19.0,87,0.00,,,0.00,Weather View 32 v70,2013-03-07 22:55:00,
2013-03-07 18:00:00,39.0,35.7,30.04,SSW,202,5.0,19.0,88,0.00,,,0.00,Weather View 32 v70,2013-03-07 23:00:00,
2013-03-07 18:10:00,39.0,36.0,30.04,SW,225,8.0,19.0,89,0.00,,,0.00,Weather View 32 v70,2013-03-07 23:10:00,
2013-03-07 18:20:00,39.0,36.6,30.04,West,270,5.0,19.0,91,0.00,,,0.00,Weather View 32 v70,2013-03-07 23:20:00,
2013-03-07 18:25:00,39.0,36.6,30.05,WNW,292,4.0,19.0,91,0.00,,,0.00,Weather View 32 v70,2013-03-07 23:25:00,
2013-03-07 18:35:00,39.0,36.6,30.05,WNW,292,5.0,19.0,91,0.00,,,0.00,Weather View 32 v70,2013-03-07 23:35:00,
2013-03-07 18:40:00,39.0,36.6,30.05,WSW,248,10.0,18.0,91,0.00,,,0.00,Weather View 32 v70,2013-03-07 23:40:00,
2013-03-07 18:45:00,39.0,36.6,30.05,WNW,292,6.0,18.0,91,0.00,,,0.00,Weather View 32 v70,2013-03-07 23:45:00,
2013-03-07 18:50:00,38.0,35.9,30.05,WSW,248,10.0,18.0,92,0.00,,,0.00,Weather View 32 v70,2013-03-07 23:50:00,
2013-03-07 18:55:00,38.0,36.4,30.05,West,270,6.0,15.0,94,0.00,,,0.00,Weather View 32 v70,2013-03-07 23:55:00,
2013-03-07 19:00:00,38.0,36.7,30.05,West,270,5.0,15.0,95,0.00,,,0.00,Weather View 32 v70,2013-03-08 00:00:00,
2013-03-07 19:05:00,38.0,37.0,30.05,West,270,4.0,15.0,96,0.00,,,0.00,Weather View 32 v70,2013-03-08 00:05:00,
2013-03-07 19:15:00,38.0,37.2,30.05,WSW,248,5.0,14.0,97,0.00,,,0.00,Weather View 32 v70,2013-03-08 00:15:00,
2013-03-07 19:20:00,38.0,37.5,30.05,NW,315,4.0,14.0,98,0.00,,,0.00,Weather View 32 v70,2013-03-08 00:20:00,
2013-03-07 19:30:00,38.0,38.0,30.05,SW,225,3.0,14.0,100,0.00,,,0.00,Weather View 32 v70,2013-03-08 00:30:00,
2013-03-07 19:35:00,38.0,38.0,30.05,SW,225,5.0,14.0,100,0.00,,,0.00,Weather View 32 v70,2013-03-08 00:35:00,
2013-03-07 19:40:00,38.0,38.0,30.05,WNW,292,5.0,14.0,100,0.00,,,0.00,Weather View 32 v70,2013-03-08 00:40:00,
2013-03-07 19:45:00,37.0,37.0,30.05,NW,315,3.0,14.0,100,0.00,,,0.00,Weather View 32 v70,2013-03-08 00:45:00,
2013-03-07 19:55:00,37.0,37.0,30.05,WSW,248,4.0,11.0,100,0.00,,,0.00,Weather View 32 v70,2013-03-08 00:55:00,
2013-03-07 20:00:00,37.0,37.0,30.05,SW,225,2.0,11.0,100,0.01,,,0.01,Weather View 32 v70,2013-03-08 01:00:00,
2013-03-07 20:05:00,37.0,37.0,30.05,SW,225,6.0,15.0,100,0.01,,,0.01,Weather View 32 v70,2013-03-08 01:05:00,
2013-03-07 20:15:00,37.0,37.0,30.05,WSW,248,6.0,16.0,100,0.01,,,0.01,Weather View 32 v70,2013-03-08 01:15:00,
2013-03-07 20:20:00,37.0,37.0,30.05,WSW,248,9.0,16.0,100,0.01,,,0.01,Weather View 32 v70,2013-03-08 01:20:00,
2013-03-07 20:25:00,37.0,37.0,30.05,WSW,248,10.0,17.0,100,0.01,,,0.01,Weather View 32 v70,2013-03-08 01:25:00,
2013-03-07 20:35:00,37.0,36.7,30.05,SW,225,9.0,17.0,99,0.01,,,0.01,Weather View 32 v70,2013-03-08 01:35:00,
2013-03-07 20:40:00,37.0,36.7,30.05,West,270,6.0,17.0,99,0.01,,,0.01,Weather View 32 v70,2013-03-08 01:40:00,
2013-03-07 20:45:00,37.0,36.7,30.05,West,270,8.0,17.0,99,0.01,,,0.01,Weather View 32 v70,2013-03-08 01:45:00,
2013-03-07 20:55:00,37.0,37.0,30.05,West,270,7.0,17.0,100,0.01,,,0.01,Weather View 32 v70,2013-03-08 01:55:00,
2013-03-07 21:10:00,36.0,36.0,30.05,WNW,292,5.0,17.0,100,0.00,,,0.01,Weather View 32 v70,2013-03-08 02:10:00,
2013-03-07 21:20:00,36.0,36.0,30.04,SW,225,8.0,17.0,100,0.00,,,0.01,Weather View 32 v70,2013-03-08 02:20:00,
2013-03-07 21:25:00,35.0,35.0,30.04,West,270,6.0,18.0,100,0.00,,,0.01,Weather View 32 v70,2013-03-08 02:25:00,
2013-03-07 21:30:00,35.0,35.0,30.04,West,270,8.0,18.0,100,0.00,,,0.01,Weather View 32 v70,2013-03-08 02:30:00,
2013-03-07 21:35:00,35.0,35.0,30.04,West,270,9.0,18.0,100,0.00,,,0.01,Weather View 32 v70,2013-03-08 02:35:00,
2013-03-07 21:40:00,35.0,35.0,30.04,West,270,6.0,18.0,100,0.00,,,0.01,Weather View 32 v70,2013-03-08 02:40:00,
2013-03-07 21:46:00,35.0,35.0,30.04,WSW,248,10.0,18.0,100,0.00,,,0.01,Weather View 32 v70,2013-03-08 02:46:00,
2013-03-07 21:55:00,35.0,35.0,30.04,SSW,202,4.0,18.0,100,0.00,,,0.01,Weather View 32 v70,2013-03-08 02:55:00,
2013-03-07 22:00:00,35.0,35.0,30.04,SW,225,5.0,18.0,100,0.00,,,0.01,Weather View 32 v70,2013-03-08 03:00:00,
2013-03-07 22:05:00,35.0,35.0,30.04,West,270,11.0,18.0,100,0.00,,,0.01,Weather View 32 v70,2013-03-08 03:05:00,
2013-03-07 22:10:00,35.0,35.0,30.04,WSW,248,3.0,18.0,100,0.00,,,0.01,Weather View 32 v70,2013-03-08 03:10:00,
2013-03-07 22:15:00,35.0,35.0,30.04,WSW,248,10.0,18.0,100,0.00,,,0.01,Weather View 32 v70,2013-03-08 03:15:00,
2013-03-07 22:20:00,35.0,35.0,30.04,West,270,5.0,18.0,100,0.00,,,0.01,Weather View 32 v70,2013-03-08 03:20:00,
2013-03-07 22:30:00,35.0,35.0,30.04,West,270,6.0,14.0,100,0.00,,,0.01,Weather View 32 v70,2013-03-08 03:30:00,
2013-03-07 22:40:00,35.0,35.0,30.04,SW,225,10.0,14.0,100,0.00,,,0.01,Weather View 32 v70,2013-03-08 03:40:00,
2013-03-07 22:47:00,35.0,35.0,30.04,WNW,292,5.0,14.0,100,0.00,,,0.01,Weather View 32 v70,2013-03-08 03:47:00,
2013-03-07 22:55:00,35.0,35.0,30.04,SSW,202,5.0,19.0,100,0.00,,,0.01,Weather View 32 v70,2013-03-08 03:55:00,
2013-03-07 23:00:00,35.0,35.0,30.04,SW,225,10.0,19.0,100,0.00,,,0.01,Weather View 32 v70,2013-03-08 04:00:00,
2013-03-07 23:10:00,34.0,34.0,30.04,NW,315,8.0,19.0,100,0.00,,,0.01,Weather View 32 v70,2013-03-08 04:10:00,
2013-03-07 23:15:00,34.0,34.0,30.04,WNW,292,7.0,19.0,100,0.00,,,0.01,Weather View 32 v70,2013-03-08 04:15:00,
2013-03-07 23:20:00,34.0,34.0,30.04,SW,225,6.0,19.0,100,0.00,,,0.01,Weather View 32 v70,2013-03-08 04:20:00,
2013-03-07 23:30:00,34.0,34.0,30.04,SW,225,5.0,19.0,100,0.00,,,0.01,Weather View 32 v70,2013-03-08 04:30:00,
2013-03-07 23:40:00,34.0,34.0,30.04,West,270,6.0,19.0,100,0.00,,,0.01,Weather View 32 v70,2013-03-08 04:40:00,
2013-03-07 23:45:00,34.0,34.0,30.04,SW,225,8.0,19.0,100,0.00,,,0.01,Weather View 32 v70,2013-03-08 04:45:00,
2013-03-07 23:50:00,34.0,34.0,30.04,SW,225,6.0,19.0,100,0.00,,,0.01,Weather View 32 v70,2013-03-08 04:50:00,
2013-03-07 23:55:00,34.0,34.0,30.04,SW,225,3.0,16.0,100,0.00,,,0.01,Weather View 32 v70,2013-03-08 04:55:00,